Stations météo

réclame
Mon MeteoGroup
Aldergrove, Grande-Bretagne (3917): Température de l'air & dewpoint: 14.09.2018 17:00:00 - 20.09.2018 17:00:00 (BST)Aldergrove, Grande-Bretagne (3917): Température de l'air -20cm & Température de l'air -100cm: 14.09.2018 17:00:00 - 20.09.2018 17:00:00 (BST)Aldergrove, Grande-Bretagne (3917): Vitesse du vent & gusts: 14.09.2018 17:00:00 - 20.09.2018 17:00:00 (BST)Aldergrove, Grande-Bretagne (3917): Direction du vent: 14.09.2018 17:00:00 - 20.09.2018 17:00:00 (BST)Aldergrove, Grande-Bretagne (3917): reduced air pressure: 14.09.2018 17:00:00 - 20.09.2018 17:00:00 (BST)Aldergrove, Grande-Bretagne (3917): visibility: 14.09.2018 17:00:00 - 20.09.2018 17:00:00 (BST)Aldergrove, Grande-Bretagne (3917): Ensoleillement: 14.09.2018 17:00:00 - 20.09.2018 17:00:00 (BST)Aldergrove, Grande-Bretagne (3917): Quantités de précipitations: 14.09.2018 17:00:00 - 20.09.2018 17:00:00 (BST)
Date & Time tt [°C] td [°C] tt -20cm [°C] tt -100cm [°C] ff [km/h] ff [knt] fx [km/h] fx [knt] dd ppp [hPa] vv [km] sd [min] rr [mm]
20.09.2018 17:00:00 11,6 6,5 - - 8 4 - - ESE 1000,1 29 0 0,0
20.09.2018 16:00:00 11,6 6,6 - - 2 1 - - SSW 1001,6 23 0 0,0
20.09.2018 15:00:00 11,0 6,8 - - 8 4 - - S 1003,1 24 0 0,0
20.09.2018 14:00:00 11,0 7,2 - - 13 7 - - S 1004,1 25 0 0,0
20.09.2018 13:00:00 10,5 6,9 - - 11 6 - - S 1004,8 28 0 0,0
20.09.2018 12:00:00 10,2 6,6 - - 13 7 - - S 1005,9 25 0 0,0
20.09.2018 11:00:00 9,6 6,6 - - 13 7 - - S 1006,3 22 12 0,0
20.09.2018 10:00:00 8,8 6,2 14,2 14,5 15 8 - - SSW 1006,4 16 36 0,0
20.09.2018 09:00:00 7,6 5,8 - - 15 8 - - S 1006,6 25 18 0,0
20.09.2018 08:00:00 7,6 6,1 - - 15 8 - - S 1006,3 19 6 0,0
20.09.2018 07:00:00 7,9 6,0 - - 16 9 - - SSW 1006,4 21 0 0,0
20.09.2018 06:00:00 8,0 6,2 - - 16 9 - - SSW 1006,2 21 0 0,0
20.09.2018 05:00:00 8,4 6,2 - - 21 11 - - SW 1006,0 22 0 0,0
20.09.2018 04:00:00 8,3 6,2 - - 21 11 - - SW 1006,1 21 0 0,0
20.09.2018 03:00:00 8,5 6,3 - - 16 9 - - SSW 1005,9 23 0 0,0
20.09.2018 02:00:00 9,0 6,2 - - 16 9 - - SW 1005,7 23 0 0,0
20.09.2018 01:00:00 9,2 6,6 - - 21 11 - - SSW 1005,4 21 - 0,0
20.09.2018 00:00:00 9,5 5,8 - - 26 14 52 28 SW 1005,1 26 0 0,0
19.09.2018 23:00:00 9,8 6,1 - - 29 16 55 30 SSW 1004,4 25 0 0,0
19.09.2018 22:00:00 9,6 5,7 - - 22 12 - - S 1004,0 23 0 0,0
19.09.2018 21:00:00 9,6 5,4 - - 24 13 - - SSW 1003,8 35 0 0,0
19.09.2018 20:00:00 10,2 5,6 - - 28 15 48 26 SSW 1003,3 35 12 0,0
19.09.2018 19:00:00 10,8 5,0 - - 34 18 57 31 SW 1002,9 35 30 0,0
19.09.2018 18:00:00 12,0 4,8 - - 34 18 65 35 SW 1001,8 25 60 0,0
19.09.2018 17:00:00 13,2 5,4 - - 41 22 63 34 SW 1000,9 26 54 0,0
19.09.2018 16:00:00 12,3 3,8 - - 44 24 70 38 WSW 1000,2 40 24 0,0
19.09.2018 15:00:00 13,3 6,1 - - 41 22 74 40 WSW 998,1 29 36 0,0
19.09.2018 14:00:00 12,1 8,3 - - 46 25 83 45 WSW 995,9 40 6 0,0
19.09.2018 13:00:00 11,9 9,5 - - 54 29 93 50 WSW 992,7 10 6 0,2
19.09.2018 12:00:00 12,4 7,7 - - 52 28 100 54 SSW 989,2 19 0 0,0
19.09.2018 11:00:00 13,0 6,4 - - 59 32 113 61 SSW 988,1 25 24 0,0
19.09.2018 10:00:00 13,5 11,4 14,7 14,5 44 24 78 42 SSW 987,4 7 0 1,2
19.09.2018 09:00:00 15,0 10,2 - - 44 24 70 38 S 987,5 26 0 0,0
19.09.2018 08:00:00 13,0 10,8 - - 34 18 59 32 SSE 990,2 17 0 2,0
19.09.2018 07:00:00 12,5 10,2 - - 24 13 - - SE 994,1 13 0 0,8
19.09.2018 06:00:00 12,5 9,3 - - 24 13 - - SSE 996,7 17 0 0,2
19.09.2018 05:00:00 12,3 9,0 - - 21 11 - - S 998,6 19 0 0,0
19.09.2018 04:00:00 11,7 7,7 - - 18 10 - - S 999,5 14 0 0,0
19.09.2018 03:00:00 12,0 7,8 - - 16 9 48 26 SSW 1000,1 14 0 0,0
19.09.2018 02:00:00 12,1 7,5 - - 26 14 48 26 SSW 1000,2 15 0 0,0
19.09.2018 01:00:00 12,8 7,2 - - 31 17 63 34 SW 999,8 19 - 0,0
19.09.2018 00:00:00 12,7 8,6 - - 29 16 57 31 SW 999,2 30 0 0,2
18.09.2018 23:00:00 13,6 7,9 - - 24 13 - - S 998,5 35 0 0,0
18.09.2018 22:00:00 13,9 8,7 - - 24 13 - - SSW 998,6 40 0 0,0
18.09.2018 21:00:00 13,7 8,8 - - 13 7 - - SSW 998,6 30 0 0,0
18.09.2018 20:00:00 14,8 8,2 - - 28 15 50 27 SW 998,5 35 18 0,0
18.09.2018 19:00:00 15,8 9,4 - - 22 12 - - SW 997,8 40 54 0,0
18.09.2018 18:00:00 17,1 9,3 - - 31 17 48 26 SW 997,5 50 54 0,0
18.09.2018 17:00:00 16,6 14,4 - - 18 10 - - S 997,1 23 12 0,0
18.09.2018 16:00:00 17,6 13,0 - - 16 9 46 25 S 997,0 35 12 0,0
18.09.2018 15:00:00 16,0 12,0 - - 24 13 - - SSW 997,9 35 18 0,0
18.09.2018 14:00:00 15,9 11,5 - - 26 14 48 26 SW 997,6 45 24 0,0
18.09.2018 13:00:00 15,2 12,0 - - 24 13 46 25 SW 997,6 50 30 0,0
18.09.2018 12:00:00 15,6 12,4 - - 28 15 - - SW 996,6 35 24 0,0
18.09.2018 11:00:00 14,9 14,0 - - 16 9 - - SW 995,4 30 18 0,0
18.09.2018 10:00:00 13,7 13,5 14,7 14,5 13 7 - - SW 995,3 9 0 0,0
18.09.2018 09:00:00 13,7 13,5 - - 9 5 - - W 994,0 3,4 0 0,2
18.09.2018 08:00:00 15,3 15,0 - - 9 5 - - SSW 992,8 2,8 0 0,0
18.09.2018 07:00:00 15,3 14,8 - - 5 3 - - SW 992,0 2,5 0 0,0
18.09.2018 06:00:00 15,6 14,8 - - 13 7 - - SE 991,7 30 0 0,0
18.09.2018 05:00:00 15,5 14,7 - - 16 9 - - SE 992,1 5 0 0,0
18.09.2018 04:00:00 15,4 14,6 - - 16 9 - - SE 992,9 7 0 0,2
18.09.2018 03:00:00 15,5 14,8 - - 13 7 - - ESE 994,1 5 0 0,6
18.09.2018 02:00:00 16,0 14,8 - - 22 12 - - SSE 995,4 7 0 0,0
18.09.2018 01:00:00 16,0 14,3 - - 22 12 - - SSE 996,4 23 - 0,0
18.09.2018 00:00:00 16,1 14,1 - - 26 14 46 25 S 997,0 19 0 0,0
17.09.2018 23:00:00 16,5 14,0 - - 28 15 46 25 SSE 997,2 18 0 0,0
17.09.2018 22:00:00 17,2 13,7 - - 29 16 - - SSE 997,9 26 0 0,0
17.09.2018 21:00:00 17,5 14,0 - - 24 13 46 25 S 998,3 22 0 0,0
17.09.2018 20:00:00 18,0 13,9 - - 34 18 55 30 S 998,1 30 0 0,0
17.09.2018 19:00:00 18,5 14,2 - - 28 15 - - S 998,1 40 0 0,0
17.09.2018 18:00:00 19,0 14,1 - - 28 15 50 27 S 998,3 50 0 0,0
17.09.2018 17:00:00 19,1 14,7 - - 28 15 48 26 S 999,1 40 0 0,0
17.09.2018 16:00:00 18,5 15,1 - - 28 15 - - SSE 999,9 40 0 0,0
17.09.2018 15:00:00 17,3 14,6 - - 26 14 50 27 SSE 1001,4 35 0 0,0
17.09.2018 14:00:00 16,9 14,3 - - 28 15 - - SSE 1002,7 50 0 0,0
17.09.2018 13:00:00 14,1 12,4 - - 16 9 - - SE 1003,7 35 0 0,2
17.09.2018 12:00:00 12,7 11,2 - - 16 9 - - S 1005,6 5 0 0,4
17.09.2018 11:00:00 14,3 11,7 - - 21 11 - - SE 1005,9 29 0 0,0
17.09.2018 10:00:00 13,5 11,4 14,7 14,7 11 6 - - ESE 1007,2 30 0 0,0
17.09.2018 09:00:00 12,6 9,6 - - 11 6 - - SSE 1008,5 45 0 0,0
17.09.2018 08:00:00 11,5 9,5 - - 8 4 - - SE 1009,2 35 0 0,0
17.09.2018 07:00:00 11,5 9,4 - - 11 6 - - SSE 1009,6 35 0 0,0
17.09.2018 06:00:00 11,2 9,4 - - 15 8 - - SSE 1010,1 35 0 0,0
17.09.2018 05:00:00 10,8 9,5 - - 15 8 - - S 1010,7 30 0 0,0
17.09.2018 04:00:00 10,9 9,3 - - 16 9 - - S 1011,3 35 0 0,0
17.09.2018 03:00:00 11,0 9,3 - - 13 7 - - S 1011,8 40 0 0,0
17.09.2018 02:00:00 10,7 8,9 - - 9 5 - - S 1012,0 30 0 0,0
17.09.2018 01:00:00 11,7 9,0 - - 8 4 - - SSE 1012,4 40 - -
17.09.2018 00:00:00 11,6 9,0 - - 11 6 - - S 1012,4 35 0 0,0
16.09.2018 23:00:00 12,2 9,7 - - 11 6 - - SSW 1012,7 40 0 0,0
16.09.2018 22:00:00 13,1 9,7 - - 15 8 - - SW 1012,7 40 0 0,0
16.09.2018 21:00:00 13,7 9,4 - - 13 7 - - SW 1012,2 30 0 0,0
16.09.2018 20:00:00 14,6 9,6 - - 18 10 - - SW 1011,8 30 0 0,0
16.09.2018 19:00:00 14,4 9,8 - - 8 4 - - SW 1012,0 30 0 0,0
16.09.2018 18:00:00 14,4 10,0 - - 9 5 - - S 1011,8 30 0 0,0
16.09.2018 17:00:00 14,4 9,4 - - 9 5 - - SW 1011,6 40 0 0,0
16.09.2018 16:00:00 15,1 9,4 - - 13 7 - - WSW 1011,8 30 0 0,0
16.09.2018 15:00:00 15,0 8,7 - - 15 8 - - WSW 1012,2 35 0 0,0
16.09.2018 14:00:00 15,0 9,1 - - 18 10 - - W 1011,9 29 18 0,0
16.09.2018 13:00:00 14,9 10,0 - - 21 11 - - WSW 1011,3 23 18 0,0
16.09.2018 12:00:00 14,9 10,5 - - 21 11 - - WSW 1010,7 40 0 0,0
16.09.2018 11:00:00 14,3 11,0 - - 22 12 - - SW 1010,3 35 18 0,0
16.09.2018 10:00:00 13,9 11,2 14,5 14,7 21 11 - - SW 1010,0 45 54 0,0
16.09.2018 09:00:00 13,3 10,7 - - 18 10 - - SW 1009,3 40 12 0,0
16.09.2018 08:00:00 12,7 10,8 - - 18 10 - - SW 1008,8 50 0 0,0
16.09.2018 07:00:00 12,9 11,0 - - 18 10 - - WSW 1008,3 50 0 0,0
16.09.2018 06:00:00 13,5 11,7 - - 26 14 46 25 WSW 1007,0 45 0 0,0
16.09.2018 05:00:00 15,9 13,8 - - 28 15 52 28 SW 1005,8 50 0 0,0
16.09.2018 04:00:00 15,6 14,2 - - 29 16 50 27 SSW 1005,3 16 0 0,0
16.09.2018 03:00:00 15,7 13,4 - - 35 19 63 34 S 1005,3 29 0 0,0
16.09.2018 02:00:00 15,0 12,9 - - 34 18 57 31 S 1006,3 50 0 0,2
16.09.2018 01:00:00 14,8 11,8 - - 37 20 54 29 S 1007,7 25 - 0,0
16.09.2018 00:00:00 14,3 11,2 - - 34 18 52 28 S 1008,7 50 0 0,0
15.09.2018 23:00:00 14,1 10,7 - - 35 19 55 30 SSE 1009,9 30 0 0,0
15.09.2018 22:00:00 14,4 10,6 - - 26 14 - - SSE 1011,8 50 0 0,4
15.09.2018 21:00:00 14,5 10,7 - - 24 13 - - SSE 1013,0 30 0 0,0
15.09.2018 20:00:00 14,4 11,3 - - 21 11 - - SSE 1014,0 27 0 0,0
15.09.2018 19:00:00 14,9 11,3 - - 13 7 - - SSE 1015,1 29 0 0,0
15.09.2018 18:00:00 15,2 11,1 - - 15 8 - - S 1016,0 45 0 -
15.09.2018 17:00:00 15,2 11,5 - - 16 9 - - S 1016,4 40 0 0,0
15.09.2018 16:00:00 14,8 10,8 - - 15 8 - - S 1017,4 27 0 0,0
15.09.2018 15:00:00 15,1 10,5 - - 15 8 - - SSW 1018,0 45 0 0,0
15.09.2018 14:00:00 15,2 10,5 - - 15 8 - - SSW 1018,5 40 0 0,0
15.09.2018 13:00:00 14,3 10,7 - - 16 9 - - SSW 1018,8 40 0 0,0
15.09.2018 12:00:00 14,2 11,0 - - 13 7 - - SW 1019,2 40 6 0,0
15.09.2018 11:00:00 13,6 11,1 - - 13 7 - - SSW 1019,1 27 18 0,0
15.09.2018 10:00:00 12,2 10,9 14,4 14,7 11 6 - - SSW 1019,2 21 0 0,0
15.09.2018 09:00:00 11,5 10,5 - - 11 6 - - S 1019,1 29 0 0,0
15.09.2018 08:00:00 11,0 10,0 - - 11 6 - - S 1018,7 21 0 0,0
15.09.2018 07:00:00 10,6 9,4 - - 11 6 - - S 1018,6 35 0 0,0
15.09.2018 06:00:00 10,2 9,3 - - 8 4 - - S 1018,6 30 0 0,0
15.09.2018 05:00:00 9,9 9,0 - - 9 5 - - S 1018,6 27 0 0,0
15.09.2018 04:00:00 9,3 8,4 - - 5 3 - - S 1018,7 29 0 0,0
15.09.2018 03:00:00 8,7 7,5 - - 8 4 - - S 1018,8 35 0 0,0
15.09.2018 02:00:00 7,4 6,1 - - 9 5 - - SSW 1019,0 35 0 0,0
15.09.2018 01:00:00 8,2 6,6 - - 5 3 - - SW 1018,8 45 - 0,0
15.09.2018 00:00:00 9,3 7,3 - - 9 5 - - WSW 1018,7 30 0 0,0
14.09.2018 23:00:00 10,3 7,3 - - 15 8 - - W 1018,3 40 0 0,0
14.09.2018 22:00:00 11,2 7,3 - - 15 8 - - W 1018,1 45 0 0,0
14.09.2018 21:00:00 11,9 7,7 - - 16 9 - - W 1017,3 50 0 0,0
14.09.2018 20:00:00 12,6 9,3 - - 18 10 - - W 1016,4 40 0 0,2
14.09.2018 19:00:00 12,6 10,4 - - 11 6 - - W 1015,7 30 0 0,0
14.09.2018 18:00:00 13,1 9,2 - - 15 8 - - W 1015,1 40 6 0,0
14.09.2018 17:00:00 15,0 10,2 - - 21 11 - - WSW 1014,6 45 36 0,0

tt = Température de l'air
td = dewpoint
tt -20cm = Température de l'air -20cm
tt -100cm = Température de l'air -100cm
ff = Vitesse du vent
fx = gusts
dd = Direction du vent
ppp = reduced air pressure
vv = visibility
sd = Ensoleillement
rr = Quantités de précipitations

stations d'obs. à proximité